Time,TemperatureF,DewpointF,PressureIn,WindDirection,WindDirectionDegrees,WindSpeedMPH,WindSpeedGustMPH,Humidity,HourlyPrecipIn,Conditions,Clouds,dailyrainin,SoftwareType,DateUTC
2013-09-30 00:00:00,66.0,-99.9,30.01,NNE,20,9.0,11.0,-999,-99.99,,,-99.99,,2013-09-30 04:00:00,
2013-09-30 00:44:00,66.0,-99.9,30.01,NNE,20,9.0,11.0,-999,-99.99,,,-99.99,,2013-09-30 04:44:00,
2013-09-30 00:53:00,66.0,-99.9,30.01,NNE,20,9.0,11.0,-999,-99.99,,,-99.99,,2013-09-30 04:53:00,
2013-09-30 01:00:00,65.0,-99.9,30.00,North,360,9.0,10.0,-999,-99.99,,,-99.99,,2013-09-30 05:00:00,
2013-09-30 01:43:00,65.0,-99.9,30.00,North,360,9.0,10.0,-999,-99.99,,,-99.99,,2013-09-30 05:43:00,
2013-09-30 01:52:00,65.0,-99.9,30.00,North,360,9.0,10.0,-999,-99.99,,,-99.99,,2013-09-30 05:52:00,
2013-09-30 02:00:00,65.0,-99.9,30.00,North,10,9.0,11.0,-999,-99.99,,,-99.99,,2013-09-30 06:00:00,
2013-09-30 02:42:00,65.0,-99.9,30.00,North,10,9.0,11.0,-999,-99.99,,,-99.99,,2013-09-30 06:42:00,
2013-09-30 02:52:00,65.0,-99.9,30.00,North,10,9.0,11.0,-999,-99.99,,,-99.99,,2013-09-30 06:52:00,
2013-09-30 03:00:00,65.0,-99.9,29.99,North,10,11.0,13.0,-999,-99.99,,,-99.99,,2013-09-30 07:00:00,
2013-09-30 03:42:00,65.0,-99.9,29.99,North,10,11.0,13.0,-999,-99.99,,,-99.99,,2013-09-30 07:42:00,
2013-09-30 03:53:00,65.0,-99.9,29.99,North,10,11.0,13.0,-999,-99.99,,,-99.99,,2013-09-30 07:53:00,
2013-09-30 04:00:00,64.0,-99.9,29.99,NNW,340,10.0,11.0,-999,-99.99,,,-99.99,,2013-09-30 08:00:00,
2013-09-30 04:42:00,64.0,-99.9,29.99,NNW,340,10.0,11.0,-999,-99.99,,,-99.99,,2013-09-30 08:42:00,
2013-09-30 04:52:00,64.0,-99.9,29.99,NNW,340,10.0,11.0,-999,-99.99,,,-99.99,,2013-09-30 08:52:00,
2013-09-30 05:00:00,63.0,-99.9,29.99,North,350,15.0,16.0,-999,-99.99,,,-99.99,,2013-09-30 09:00:00,
2013-09-30 05:42:00,63.0,-99.9,29.99,North,350,15.0,16.0,-999,-99.99,,,-99.99,,2013-09-30 09:42:00,
2013-09-30 05:54:00,63.0,-99.9,29.99,North,350,15.0,16.0,-999,-99.99,,,-99.99,,2013-09-30 09:54:00,
2013-09-30 06:00:00,62.0,-99.9,30.01,North,350,13.0,15.0,-999,-99.99,,,-99.99,,2013-09-30 10:00:00,
2013-09-30 06:43:00,62.0,-99.9,30.01,North,350,13.0,15.0,-999,-99.99,,,-99.99,,2013-09-30 10:43:00,
2013-09-30 06:53:00,62.0,-99.9,30.01,North,350,13.0,15.0,-999,-99.99,,,-99.99,,2013-09-30 10:53:00,
2013-09-30 07:00:00,62.0,-99.9,30.02,North,350,9.0,11.0,-999,-99.99,,,-99.99,,2013-09-30 11:00:00,
2013-09-30 07:43:00,62.0,-99.9,30.02,North,350,9.0,11.0,-999,-99.99,,,-99.99,,2013-09-30 11:43:00,
2013-09-30 07:52:00,62.0,-99.9,30.02,North,350,9.0,11.0,-999,-99.99,,,-99.99,,2013-09-30 11:52:00,
2013-09-30 08:00:00,63.0,-99.9,30.03,North,350,11.0,14.0,-999,-99.99,,,-99.99,,2013-09-30 12:00:00,
2013-09-30 08:22:00,63.0,-99.9,30.03,North,350,11.0,14.0,-999,-99.99,,,-99.99,,2013-09-30 12:22:00,
2013-09-30 08:32:00,63.0,-99.9,30.03,North,350,11.0,14.0,-999,-99.99,,,-99.99,,2013-09-30 12:32:00,
2013-09-30 08:42:00,63.0,-99.9,30.03,North,350,11.0,14.0,-999,-99.99,,,-99.99,,2013-09-30 12:42:00,
2013-09-30 08:52:00,63.0,-99.9,30.03,North,350,11.0,14.0,-999,-99.99,,,-99.99,,2013-09-30 12:52:00,
2013-09-30 09:00:00,63.0,-99.9,30.04,NNW,340,9.0,11.0,-999,-99.99,,,-99.99,,2013-09-30 13:00:00,
2013-09-30 09:42:00,63.0,-99.9,30.04,NNW,340,9.0,11.0,-999,-99.99,,,-99.99,,2013-09-30 13:42:00,
2013-09-30 09:52:00,63.0,-99.9,30.04,NNW,340,9.0,11.0,-999,-99.99,,,-99.99,,2013-09-30 13:52:00,
2013-09-30 10:00:00,66.0,-99.9,30.04,North,350,9.0,10.0,-999,-99.99,,,-99.99,,2013-09-30 14:00:00,
2013-09-30 10:42:00,66.0,-99.9,30.04,North,350,9.0,10.0,-999,-99.99,,,-99.99,,2013-09-30 14:42:00,
2013-09-30 10:53:00,66.0,-99.9,30.04,North,350,9.0,10.0,-999,-99.99,,,-99.99,,2013-09-30 14:53:00,
2013-09-30 11:00:00,68.0,-99.9,30.04,North,350,9.0,14.0,-999,-99.99,,,-99.99,,2013-09-30 15:00:00,
2013-09-30 11:45:00,68.0,-99.9,30.04,North,350,9.0,14.0,-999,-99.99,,,-99.99,,2013-09-30 15:45:00,
2013-09-30 11:54:00,68.0,-99.9,30.04,North,350,9.0,14.0,-999,-99.99,,,-99.99,,2013-09-30 15:54:00,
2013-09-30 12:00:00,70.0,-99.9,30.03,NNW,340,8.0,13.0,-999,-99.99,,,-99.99,,2013-09-30 16:00:00,
2013-09-30 12:44:00,70.0,-99.9,30.03,NNW,340,8.0,13.0,-999,-99.99,,,-99.99,,2013-09-30 16:44:00,
2013-09-30 12:54:00,70.0,-99.9,30.03,NNW,340,8.0,13.0,-999,-99.99,,,-99.99,,2013-09-30 16:54:00,
2013-09-30 13:00:00,72.0,-99.9,30.01,NNE,30,9.0,10.0,-999,-99.99,,,-99.99,,2013-09-30 17:00:00,
2013-09-30 13:43:00,72.0,-99.9,30.01,NNE,30,9.0,10.0,-999,-99.99,,,-99.99,,2013-09-30 17:43:00,
2013-09-30 13:53:00,72.0,-99.9,30.01,NNE,30,9.0,10.0,-999,-99.99,,,-99.99,,2013-09-30 17:53:00,
2013-09-30 14:00:00,73.0,-99.9,30.00,NNE,30,8.0,11.0,-999,-99.99,,,-99.99,,2013-09-30 18:00:00,
2013-09-30 14:42:00,73.0,-99.9,30.00,NNE,30,8.0,11.0,-999,-99.99,,,-99.99,,2013-09-30 18:42:00,
2013-09-30 14:54:00,73.0,-99.9,30.00,NNE,30,8.0,11.0,-999,-99.99,,,-99.99,,2013-09-30 18:54:00,
2013-09-30 15:00:00,73.0,-99.9,29.98,North,10,9.0,11.0,-999,-99.99,,,-99.99,,2013-09-30 19:00:00,
2013-09-30 15:42:00,73.0,-99.9,29.98,North,10,9.0,11.0,-999,-99.99,,,-99.99,,2013-09-30 19:42:00,
2013-09-30 15:53:00,73.0,-99.9,29.98,North,10,9.0,11.0,-999,-99.99,,,-99.99,,2013-09-30 19:53:00,
2013-09-30 16:00:00,71.0,-99.9,29.98,NE,50,11.0,14.0,-999,-99.99,,,-99.99,,2013-09-30 20:00:00,
2013-09-30 16:43:00,71.0,-99.9,29.98,NE,50,11.0,14.0,-999,-99.99,,,-99.99,,2013-09-30 20:43:00,
2013-09-30 16:53:00,71.0,-99.9,29.98,NE,50,11.0,14.0,-999,-99.99,,,-99.99,,2013-09-30 20:53:00,
2013-09-30 17:00:00,73.0,-99.9,29.98,North,10,6.0,8.0,-999,-99.99,,,-99.99,,2013-09-30 21:00:00,
2013-09-30 17:44:00,73.0,-99.9,29.98,North,10,6.0,8.0,-999,-99.99,,,-99.99,,2013-09-30 21:44:00,
2013-09-30 17:54:00,73.0,-99.9,29.98,North,10,6.0,8.0,-999,-99.99,,,-99.99,,2013-09-30 21:54:00,
2013-09-30 18:00:00,73.0,-99.9,30.00,North,360,7.0,8.0,-999,-99.99,,,-99.99,,2013-09-30 22:00:00,
2013-09-30 18:44:00,73.0,-99.9,30.00,North,360,7.0,8.0,-999,-99.99,,,-99.99,,2013-09-30 22:44:00,
2013-09-30 18:54:00,73.0,-99.9,30.00,North,360,7.0,8.0,-999,-99.99,,,-99.99,,2013-09-30 22:54:00,
2013-09-30 19:00:00,72.0,-99.9,30.01,North,10,7.0,9.0,-999,-99.99,,,-99.99,,2013-09-30 23:00:00,
2013-09-30 19:43:00,72.0,-99.9,30.01,North,10,7.0,9.0,-999,-99.99,,,-99.99,,2013-09-30 23:43:00,
2013-09-30 19:54:00,72.0,-99.9,30.01,North,10,7.0,9.0,-999,-99.99,,,-99.99,,2013-09-30 23:54:00,
2013-09-30 20:00:00,70.0,-99.9,30.04,NNW,340,6.0,7.0,-999,-99.99,,,-99.99,,2013-10-01 00:00:00,
2013-09-30 20:43:00,70.0,-99.9,30.04,NNW,340,6.0,7.0,-999,-99.99,,,-99.99,,2013-10-01 00:43:00,
2013-09-30 20:52:00,70.0,-99.9,30.04,NNW,340,6.0,7.0,-999,-99.99,,,-99.99,,2013-10-01 00:52:00,
2013-09-30 21:00:00,69.0,-99.9,30.04,NNE,20,8.0,9.0,-999,-99.99,,,-99.99,,2013-10-01 01:00:00,
2013-09-30 21:22:00,69.0,-99.9,30.04,NNE,20,8.0,9.0,-999,-99.99,,,-99.99,,2013-10-01 01:22:00,
2013-09-30 21:33:00,69.0,-99.9,30.04,NNE,20,8.0,9.0,-999,-99.99,,,-99.99,,2013-10-01 01:33:00,
2013-09-30 21:42:00,69.0,-99.9,30.04,NNE,20,8.0,9.0,-999,-99.99,,,-99.99,,2013-10-01 01:42:00,
2013-09-30 21:52:00,69.0,-99.9,30.04,NNE,20,8.0,9.0,-999,-99.99,,,-99.99,,2013-10-01 01:52:00,
2013-09-30 22:00:00,69.0,-99.9,30.05,North,360,6.0,6.0,-999,-99.99,,,-99.99,,2013-10-01 02:00:00,
2013-09-30 22:43:00,69.0,-99.9,30.05,North,360,6.0,6.0,-999,-99.99,,,-99.99,,2013-10-01 02:43:00,
2013-09-30 22:52:00,69.0,-99.9,30.05,North,360,6.0,6.0,-999,-99.99,,,-99.99,,2013-10-01 02:52:00,
2013-09-30 23:00:00,68.0,-99.9,30.06,North,10,9.0,10.0,-999,-99.99,,,-99.99,,2013-10-01 03:00:00,
2013-09-30 23:22:00,68.0,-99.9,30.06,North,10,9.0,10.0,-999,-99.99,,,-99.99,,2013-10-01 03:22:00,
2013-09-30 23:34:00,68.0,-99.9,30.06,North,10,9.0,10.0,-999,-99.99,,,-99.99,,2013-10-01 03:34:00,
2013-09-30 23:44:00,68.0,-99.9,30.06,North,10,9.0,10.0,-999,-99.99,,,-99.99,,2013-10-01 03:44:00,
2013-09-30 23:55:00,68.0,-99.9,30.06,North,10,9.0,10.0,-999,-99.99,,,-99.99,,2013-10-01 03:55:00,